Location: Lasqueti Island Observatory
(49.4855°N, 124.2726°W)
Time: 10:17:24
(UTC-08:00)

Daily predictions for brighter satellites

Satellite Brightness Start Highest point End
(mag) Time Altitude Azimuth Time Altitude Azimuth Time Altitude Azimuth
CZ-4C R/B 3.9 17:24:24 10° NW 17:29:20 24° N 17:34:47 10° NE
Cosmos 1908 3.9 17:26:05 10° NNW 17:29:56 60° W 17:33:48 10° S
Resurs 01 Rocket 3.5 17:31:22 10° ENE 17:32:13 10° NE 17:33:04 10° NE
Lacrosse 5 2.7 17:28:14 10° W 17:33:01 41° NNW 17:37:50 10° ENE
USA 215 3.4 17:28:33 10° E 17:35:01 63° NNE 17:41:28 10° WNW
Cosmos 2228 Rocket 3.3 17:30:38 10° NNW 17:35:04 76° W 17:39:30 10° S
Meteor 1-21 Rocket 4.4 17:30:04 10° SSW 17:35:59 86° WNW 17:41:51 10° NNE
Meteor 2-2 Rocket 4.4 17:32:16 10° NNW 17:37:56 86° W 17:43:35 10° S
Cosmos 1328 Rocket 4.0 17:37:12 10° NNW 17:41:38 69° W 17:46:03 10° S
Cosmos 1300 2.7 17:39:23 10° N 17:43:12 61° ENE 17:47:00 10° SSE
Cosmos 1151 Rocket 2.9 17:41:04 10° N 17:45:21 70° ENE 17:49:39 10° SSE
Cosmos 1743 Rocket 3.6 17:41:32 10° S 17:46:00 85° E 17:50:31 10° N
Cosmos 2279 Rocket 4.1 17:40:12 10° N 17:46:16 52° ENE 17:52:19 10° SSE
CZ-2C R/B 2.9 17:45:39 10° S 17:50:33 66° WSW 17:55:19 10° NNW
Cosmos 2346 Rocket 4.5 17:44:44 10° S 17:50:59 76° E 17:57:12 10° NNE
Lacrosse 4 Rocket 2.4 17:47:38 10° NNW 17:51:05 26° NE 17:54:30 10° E
Meteor 1-27 4.3 17:45:25 10° N 17:51:12 60° ENE 17:56:58 10° SSE
Cosmos 1515 Rocket 4.0 17:49:07 10° NNW 17:53:34 69° W 17:57:59 10° S
Cosmos 2369 Rocket 3.6 17:50:00 10° N 17:53:50 18° NE 17:56:58 12° ENE
Cosmos 332 Rocket 3.9 17:49:23 10° SSW 17:54:14 81° WNW 17:59:09 10° NNE
Cosmos 2237 Rocket 2.4 17:49:05 10° S 17:54:32 54° ESE 18:00:02 10° NE
SL-14 R/B 3.5 17:52:58 10° S 17:56:48 50° E 18:00:42 10° NNE
Cosmos 1125 Rocket 4.1 17:52:58 10° NNW 17:58:08 62° WSW 18:03:14 10° S
Cosmos 1340 Rocket 3.5 17:54:59 10° SSE 17:58:28 31° E 18:01:58 10° NNE
DNEPR-1 R/B 4.4 17:52:11 10° SSW 17:58:50 74° SE 18:04:16 10° NE
Cosmos 44 3.5 17:54:06 10° SSW 17:59:14 60° ESE 18:03:56 11° NE
Cosmos 1484 Rocket 2.8 17:55:36 10° SSE 17:59:32 69° ENE 18:03:33 10° N
COSMOS 2441 4.4 17:56:37 10° SSE 18:01:29 88° WSW 18:06:21 10° NNW
SKYMED 2 4.1 17:57:38 10° NNE 18:01:44 38° E 18:05:47 10° SSE
SL-16 R/B 3.1 17:57:42 10° SSE 18:02:30 29° ESE 18:06:54 12° NE
COSMOS 2428 3.4 17:56:55 10° SW 18:02:32 55° NW 18:08:09 10° NNE
Cosmos 1805 Rocket 4.3 18:00:42 10° SSE 18:04:37 31° E 18:08:34 10° NNE
ALOS 3.4 18:02:34 10° ESE 18:06:07 22° ENE 18:09:39 10° NNE
CENTAUR R/B 3.0 18:00:25 10° WSW 18:06:41 63° NW 18:13:52 10° NE
Cosmos 841 Rocket 4.1 18:01:47 10° SW 18:07:00 60° WNW 18:12:14 10° NNE
Cosmos 2084 3.2 18:04:03 10° SW 18:07:54 83° NW 18:11:06 14° NE
Meteor 1-28 Rocket 4.0 18:04:55 10° NNE 18:08:13 29° E 18:11:29 10° SSE
Spot 2 Rocket 4.5 18:05:56 10° ESE 18:09:56 24° ENE 18:13:56 10° N
Cosmos 2297 3.7 18:04:34 10° NNW 18:10:19 80° ENE 18:16:03 10° SSE
Meteor 2-10 3.9 18:06:07 10° N 18:11:14 83° E 18:16:28 10° SSE
Cosmos 1500 Rocket 3.8 18:07:06 10° SSW 18:11:26 74° W 18:15:50 10° N
Thor Agena Rocket 3.6 18:06:34 10° NNE 18:11:52 87° ESE 18:17:03 10° SSW
Cosmos 2058 2.9 18:08:38 10° S 18:12:39 57° E 18:16:42 10° NNE
Cosmos 2180 Rocket 4.4 18:07:19 10° N 18:13:27 67° ENE 18:19:38 10° SSE
Cosmos 1461 3.8 18:12:15 10° S 18:15:51 29° ESE 18:17:38 21° ENE
Iridium 4 Rocket 4.3 18:15:17 10° SE 18:18:11 20° E 18:18:11 20° E
Sich 1 3.9 18:15:47 10° SSE 18:19:38 29° E 18:22:59 13° NNE
Abrixas 3.6 18:18:38 10° SW 18:21:16 30° SSE 18:22:21 23° ESE
Cosmos 371 Rocket 3.8 18:17:49 10° SW 18:22:35 62° WNW 18:27:23 10° NNE
Orbus 7S? 3.9 18:22:23 10° NW 18:25:53 72° NNE 18:33:32 10° ESE
SL-16 R/B 4.5 18:25:27 10° WNW 18:28:25 14° NNW 18:31:24 10° N
Cosmos 1633 Rocket 3.7 18:24:45 10° SSE 18:28:39 32° E 18:31:03 19° NE
NOSS 0 Rocket 4.1 18:26:00 10° SW 18:32:14 78° WNW 18:38:30 10° NNE
Cosmos 1356 Rocket 3.7 18:29:40 10° SSE 18:33:25 41° E 18:35:32 22° NE
FENGYUN 3A 4.0 18:29:15 10° SE 18:34:12 39° ENE 18:39:12 10° N
FREGAT/IRIS 2.9 18:31:29 10° SSE 18:34:25 45° ENE 18:37:22 10° N
Lacrosse 5 rocket 3.8 18:32:17 10° W 18:35:09 21° SW 18:38:07 10° S
METEOR-M 4.0 18:31:19 10° SSE 18:36:38 70° ENE 18:41:59 10° N
Aureole 2 Rocket 2.7 18:33:17 10° SSW 18:37:09 87° WNW 18:40:33 15° NNE
Cosmos 2360 Rocket 4.3 18:34:01 10° W 18:38:11 21° NW 18:42:22 10° N
Cosmos 1980 4.0 18:37:28 10° SW 18:43:07 67° WNW 18:48:46 10° NNE
Aureole 1 Rocket 4.4 18:39:42 10° SSE 18:45:01 40° E 18:50:43 14° NE
ATLAS 5 CENTAUR R/B 3.3 18:40:23 10° NW 18:45:13 28° NNE 18:46:57 24° NE
Cosmos 44 Rocket 4.1 18:40:18 10° WSW 18:45:14 49° NW 18:48:59 17° NNE
Cosmos 1626 2.1 18:42:03 10° S 18:45:43 60° E 18:47:40 26° NNE
Cosmos 1862 Rocket 4.4 18:42:06 10° N 18:45:15 29° NE 18:45:15 29° NE
SL-19 R/B 4.3 18:41:00 10° SE 18:46:39 60° ENE 18:52:09 10° NNW
NOAA 12 4.1 18:43:19 10° SSE 18:48:35 88° W 18:53:54 10° NNW
Meteor 1-11 4.5 18:43:20 10° SSW 18:49:02 73° WNW 18:54:51 10° N
Cosmos 1707 Rocket 3.6 18:44:41 10° NNW 18:49:03 80° W 18:53:23 10° S
COSMO-SKYMED 1 2.8 18:45:31 10° N 18:49:52 73° WNW 18:54:11 10° SSW
Cosmos 304 Rocket 3.7 18:53:45 10° SSW 18:58:34 85° WNW 19:01:57 20° NNE
Cosmos 1455 2.2 18:55:20 10° NNW 18:59:08 78° W 19:02:57 10° S
Cosmos 540 Rocket 4.3 18:54:34 10° SW 18:59:34 49° WNW 19:04:36 10° NNE
FAST Rocket 4.4 18:58:11 10° S 19:00:18 57° SSW 19:00:18 57° SSW
Cosmos 773 Rocket 4.1 18:56:18 10° S 19:01:15 48° ESE 19:02:33 40° ENE
Cosmos 2219 Rocket 3.5 18:56:37 10° WSW 19:01:49 37° NW 19:07:01 10° NNE
Cosmos 1943 Rocket 3.3 18:58:34 10° NNW 19:02:34 24° NE 19:02:34 24° NE
Cosmos 1666 Rocket 3.4 18:59:31 10° S 19:03:51 84° E 19:07:22 16° NNE
FengYun 1-2 T 4.1 18:59:17 10° SSE 19:04:48 71° ENE 19:10:18 10° NNW
Cosmos 2333 Rocket 3.3 18:59:44 10° WSW 19:05:06 43° NW 19:10:15 11° NNE
Cosmos 2084 Rocket 3.8 19:01:26 10° NW 19:04:33 40° NNE 19:04:33 40° NNE
Cosmos 1703 3.7 19:03:02 10° SSW 19:06:53 61° WNW 19:10:18 13° N
SJ-6B 3.2 19:02:59 10° S 19:07:05 69° WSW 19:11:14 10° NNW
Cosmos 1603 4.3 19:02:04 10° S 19:06:32 34° ESE 19:06:32 34° ESE
Resurs 01 Rocket 1.5 19:04:23 16° SSE 19:07:52 66° ENE 19:12:17 10° N
Resurs 1-3 3.6 19:09:58 58° ENE 19:10:04 58° ENE 19:14:24 10° N
Lacrosse 5 2.6 19:12:12 10° WNW 19:16:56 37° N 19:17:31 36° NNE
ATLAS 3B R/B 3.8 19:11:08 10° NW 19:17:10 28° NNE 19:18:46 25° NE
USA 215 3.7 19:12:20 14° SE 19:18:04 61° SW 19:24:34 10° WNW
CZ-4C R/B 3.5 19:13:51 10° NW 19:19:50 35° NNE 19:21:00 33° NE
Cosmos 1242 Rocket 4.5 19:17:58 10° NNW 19:19:07 20° NNW 19:19:07 20° NNW
Spot 1 4.5 19:26:46 52° N 19:26:46 52° N 19:30:10 10° N
Lacrosse 4 Rocket 2.3 19:26:05 10° NW 19:29:59 46° WSW 19:31:20 33° SSW
Cosmos 1627 Rocket 4.4 19:24:46 10° S 19:30:48 59° E 19:31:57 50° NE
Cosmos 2242 Rocket 4.4 19:31:41 10° NNW 19:35:58 51° W 19:40:17 10° S
Cosmos 2237 Rocket 3.7 19:33:51 10° WSW 19:38:53 33° NW 19:42:52 15° N
Cosmos 2369 Rocket 2.1 19:33:19 10° NNW 19:38:49 67° NE 19:38:49 67° NE
ALOS 2.9 19:38:37 10° S 19:43:12 56° W 19:47:49 10° NNW
SL-16 R/B 2.8 19:40:48 10° SW 19:46:20 54° NW 19:48:50 31° N
Spot 2 Rocket 4.0 19:43:35 10° S 19:48:33 57° W 19:53:32 10° NNW
S3M 4.3 19:43:00 10° N 19:47:56 49° NNE 19:47:56 49° NNE
Cosmos 1461 4.2 19:50:59 10° WSW 19:54:08 37° WNW 19:54:08 37° WNW
Iridium 4 Rocket 4.1 19:53:56 10° SSW 19:58:06 44° W 19:58:06 44° W
CENTAUR R/B 4.1 19:52:58 10° WNW 19:58:49 30° NNW 20:01:17 25° NNE
Cosmos 2026 Rocket 4.1 19:53:30 10° S 20:07:16 - N 19:58:32 61° S
USA 229 DEB 3.5 19:57:31 10° SW 20:04:24 86° SE 20:04:43 82° ENE
USA 229 3.5 19:57:36 10° SW 20:04:31 85° SE 20:04:47 82° ENE
Cosmos 1553 Rocket 4.5 20:11:40 10° N 20:16:10 51° NNW 20:16:10 51° NNW
Cosmos 1867 4.5 20:14:29 10° NW 20:18:11 44° NW 20:18:11 44° NW
ATLAS 5 CENTAUR R/B 3.3 20:24:55 10° NW 20:28:31 40° NNW 20:28:31 40° NNW
Resurs 01 Rocket 4.4 20:42:02 10° SW 20:44:47 16° W 20:47:32 10° NW
Cosmos 1943 Rocket 4.0 20:41:53 10° NNW 20:44:06 25° NNW 20:44:06 25° NNW
Lacrosse 5 4.3 20:55:25 10° NW 20:56:44 18° NW 20:56:44 18° NW
CZ-4C R/B 3.8 21:02:20 10° NW 21:06:12 38° NW 21:06:12 38° NW
ATLAS 3B R/B 4.1 21:02:26 10° NW 21:06:01 31° NNW 21:06:01 31° NNW
Cosmos 2369 Rocket 4.5 21:18:12 10° NW 21:20:40 19° WNW 21:20:40 19° WNW
